Hourly Data Report for October 18, 2013

All times are specified in Local Standard Time (LST). Add 1 hour to adjust for Daylight Saving Time where and when it is observed.

KAMLOOPS A
BRITISH COLUMBIA

50°42'09.000" N
120°26'55.000" W
345.30 m
1163781
71887
YKA

Download Data

Hourly Data (October 2013)
Hourly Data Report for October 18, 2013
Temp Definition
°C
Dew Point Temp Definition
°C
Rel Hum Definition
%
Wind Dir Definition
10's deg

Wind Spd Definition
km/h
Visibility Definition
km
Stn Press Definition
kPa
Hmdx Definition


Wind Chill Definition


Weather Definition


TIME
00:00 Legend Double Dagger 0.9 -2.0 81 2 5 64.4 98.60     LegendNANA
01:00 Legend Double Dagger 2.3 0.0 85 9 4 64.4 98.61     Mainly Clear
02:00 Legend Double Dagger 2.2 0.3 87 7 2 64.4 98.63     LegendNANA
03:00 Legend Double Dagger 0.2 -1.7 87 5 4 64.4 98.65     LegendNANA
04:00 Legend Double Dagger 0.8 -0.7 90 7 5 64.4 98.64     Mainly Clear
05:00 Legend Double Dagger -0.5 -1.6 92 4 4 64.4 98.64   -2 LegendNANA
06:00 Legend Double Dagger 0.2 -1.3 90 6 4 64.4 98.64     LegendNANA
07:00 Legend Double Dagger -0.8 -1.9 92 8 9 64.4 98.66   -4 Mainly Clear
08:00 Legend Double Dagger 1.5 0.0 90 10 14 64.4 98.67     LegendNANA
09:00 Legend Double Dagger 1.8 0.3 90 11 10 64.4 98.68     LegendNANA
10:00 Legend Double Dagger 4.1 1.3 82 10 9 48.3 98.64     Mainly Clear
11:00 Legend Double Dagger 6.7 1.4 69 11 12 64.4 98.58     LegendNANA
12:00 Legend Double Dagger 8.7 1.6 61 10 12 64.4 98.46     LegendNANA
13:00 Legend Double Dagger 10.3 1.7 55 10 8 64.4 98.32     Mainly Clear
14:00 Legend Double Dagger 11.6 2.4 53 9 12 64.4 98.23     LegendNANA
15:00 Legend Double Dagger 11.8 2.8 54 10 13 64.4 98.15     LegendNANA
16:00 Legend Double Dagger 11.6 2.7 54 8 13 64.4 98.10     Mainly Clear
17:00 Legend Double Dagger 9.9 3.0 62 7 13 64.4 98.10     LegendNANA
18:00 Legend Double Dagger 8.4 3.5 71 7 14 64.4 98.12     LegendNANA
19:00 Legend Double Dagger 7.2 3.5 77 6 14 64.4 98.14     Mainly Clear
20:00 Legend Double Dagger 6.1 3.1 81 7 10 64.4 98.14     LegendNANA
21:00 Legend Double Dagger 4.8 2.7 86 6 4 64.4 98.16     LegendNANA
22:00 Legend Double Dagger 4.5 2.7 88 11 9 64.4 98.18     Mainly Clear
23:00 Legend Double Dagger 3.3 1.4 87 13 3 64.4 98.17     LegendNANA

Notes on Data Quality.

Legend

  • E = Estimated
  • M = Missing
  • NA = Not Available
  • ‡ = Partner data that is not subject to review by the National Climate Archives
Date modified: